Dewpoint
63 62 61 53 41 38 32 33 31 38 34 34 44 52 55 57 53 47 66 69 70 71 72 72 73 73 73 72 71 71 70 70 71 71 70 71 71 72 71 69 68 67 67 66 65 65 65 65 66
62 59 56 48 35 29 30 30 28 44 33 50 54 55 55 55 60 66 68 70 71 71 71 71 73 73 73 72 72 72 71 70 70 70 69 69 69 69 68 68 68 67 66 67 67 66 66 67 67
61 60 49 44 37 25 24 28 28 38 39 35 49 57 57 56 64 64 69 70 70 71 71 72 73 73 73 72 72 72 72 70 69 68 68 68 67 67 67 67 67 66 66 67 68 68 68 68 69
58 56 52 39 33 31 25 32 29 34 41 43 56 57 61 63 61 67 69 70 70 71 71 73 73 74 73 72 72 72 72 70 69 67 66 67 67 68 66 67 67 67 69 68 68 68 69 69 68
58 52 43 39 35 33 31 36 32 32 34 43 51 56 59 65 66 68 69 69 70 71 72 72 73 73 73 72 72 72 72 71 69 67 65 66 67 67 67 67 67 67 67 68 68 68 69 68 66
52 50 39 37 35 32 31 34 34 32 42 49 55 57 60 66 66 68 68 68 70 71 72 72 72 73 72 71 71 71 72 72 71 69 66 65 67 67 67 67 67 67 67 68 68 68 68 66 65
50 46 35 37 33 33 33 33 33 37 48 50 57 53 61 64 67 67 66 69 69 71 71 71 71 72 71 71 71 70 71 72 71 71 69 67 67 67 67 67 67 67 67 67 68 67 66 65 64
52 46 40 36 32 34 34 40 42 44 45 50 57 57 59 64 67 67 67 69 70 71 71 70 71 71 71 70 70 70 70 71 71 70 69 68 67 67 68 68 68 67 67 67 66 66 65 65 63
54 45 39 38 35 35 39 38 42 47 50 56 54 59 62 66 68 67 67 69 69 69 70 70 70 70 69 69 68 69 69 69 70 69 67 67 67 67 66 65 67 68 67 67 66 66 65 65 64
49 43 41 44 43 37 39 39 43 45 51 57 59 65 66 65 65 65 66 66 67 67 69 69 69 69 68 67 67 67 68 68 68 68 67 67 66 66 66 65 66 67 67 67 66 66 66 64 60
48 43 46 48 50 48 39 40 43 43 44 55 57 61 64 63 64 65 66 66 66 67 68 69 68 68 66 66 65 65 66 66 67 67 66 66 66 65 65 64 65 64 64 64 65 64 63 61 59
45 47 48 49 51 48 46 43 41 42 43 56 61 62 63 63 63 64 64 66 67 68 68 68 68 67 66 65 64 64 65 65 66 67 67 65 64 64 63 63 63 62 62 61 61 61 61 60 59
45 47 46 49 49 49 48 47 45 43 47 60 62 63 63 63 62 63 65 65 66 67 67 67 67 67 65 64 64 63 63 65 65 65 66 65 64 64 63 63 62 62 61 61 60 60 60 60 58
45 46 44 47 48 49 46 47 44 42 47 58 60 61 63 62 63 62 63 64 65 66 67 67 66 67 66 65 64 63 63 64 64 64 64 63 63 63 62 62 62 61 61 61 59 60 57 54 53
45 42 44 44 48 47 49 43 43 45 43 52 57 59 61 63 64 63 63 63 65 65 66 66 66 67 65 65 65 64 63 62 63 63 62 60 60 60 60 59 59 58 58 58 58 58 57 56 57
41 40 37 44 47 47 46 40 45 48 43 42 48 54 58 60 62 63 64 64 64 65 65 67 67 67 65 65 65 64 63 61 61 61 60 60 61 61 60 60 59 58 58 58 58 59 59 59 59
38 35 36 39 46 46 44 41 42 47 45 41 42 46 50 54 58 61 62 64 64 65 65 66 66 66 66 66 66 66 64 63 63 62 61 60 61 61 61 61 61 61 60 60 60 60 59 59 59
32 35 35 35 42 44 44 42 44 44 43 41 41 41 43 46 50 56 60 62 65 65 65 65 66 65 65 67 67 66 66 64 64 63 62 62 61 62 62 62 62 62 61 60 61 60 60 60 60
32 35 35 35 40 40 39 41 43 45 43 38 40 40 39 43 46 47 52 60 62 64 64 64 65 65 65 66 65 65 64 66 65 64 63 63 63 62 62 63 63 63 62 61 61 61 61 61 61
32 30 30 36 39 39 37 35 39 43 41 38 38 39 39 38 40 45 45 50 59 63 64 64 64 65 65 65 65 66 65 65 66 66 66 66 65 65 64 64 64 64 64 63 63 62 62 62 62
30 27 31 34 40 40 37 35 37 38 38 37 39 39 39 39 38 43 43 42 48 60 63 64 65 65 65 65 64 63 64 64 64 64 64 65 66 66 65 65 65 65 65 64 63 63 62 61 62
30 33 31 36 36 33 37 27 28 31 33 35 35 39 39 38 38 41 43 40 40 56 61 64 65 65 65 65 64 64 63 63 63 63 63 63 64 64 64 64 64 64 63 63 63 64 63 62 61
31 35 35 36 31 29 30 28 28 29 28 30 31 35 39 38 38 40 42 41 39 45 57 59 61 62 63 64 64 63 61 61 61 62 62 60 58 59 59 59 60 60 60 61 60 59 59 60 60
34 34 33 36 33 27 27 29 27 27 26 27 29 31 34 38 37 40 42 40 38 41 52 55 58 60 61 61 61 61 61 59 58 58 58 56 55 54 54 54 54 56 56 57 56 56 55 56 56
35 36 29 27 27 25 26 29 27 28 28 25 26 29 32 34 37 37 42 41 40 45 49 50 55 56 57 58 58 59 59 57 58 58 57 55 53 53 51 52 52 52 52 53 54 55 55 55 54
32 34 26 18 21 21 27 25 24 27 28 29 27 30 31 33 35 37 41 42 41 45 48 48 49 50 49 52 53 52 55 55 55 55 54 54 53 50 50 48 47 47 47 48 49 51 53 54 53
31 30 31 26 24 20 21 22 23 24 23 26 28 29 29 30 35 35 41 41 41 44 46 46 46 46 45 45 48 50 51 52 52 50 52 51 49 46 44 44 44 44 44 45 45 47 48 52 52
33 34 30 30 23 19 17 21 19 19 22 25 27 28 28 29 33 40 41 40 42 44 45 45 46 46 46 47 47 46 46 46 45 45 43 41 40 41 42 41 41 41 42 42 43 44 46 49 49
34 32 32 29 25 20 14 15 18 19 21 26 28 31 32 32 32 33 39 41 43 45 46 45 46 47 46 45 44 43 42 42 41 41 40 40 40 40 40 40 40 40 40 40 41 41 44 46 46
36 33 32 26 23 22 20 18 24 26 29 32 33 34 35 35 34 34 37 40 43 45 45 45 46 46 45 44 43 43 42 41 40 40 39 39 39 39 39 39 39 39 40 40 40 41 42 42 43
Lifted_Index
-4 -3 -2 -1 2 3 3 2 1 1 2 2 0 -1 -2 -2 -2 -2 -3 -3 -3 -4 -4 -4 -3 -3 -2 -1 -1 -0 0 1 1 1 1 0 0 0 1 2 2 3 4 4 5 5 5 4 4
-3 -3 -2 -0 2 3 3 2 2 1 1 1 -1 -1 -2 -2 -2 -3 -3 -4 -4 -4 -4 -4 -3 -3 -2 -2 -1 -1 0 1 1 1 1 1 1 1 2 2 3 3 4 4 4 4 4 3 3
-3 -2 -1 0 2 3 3 2 2 1 1 0 -1 -2 -2 -2 -3 -4 -4 -4 -4 -4 -4 -4 -4 -3 -3 -2 -1 -1 -0 1 2 2 2 2 2 2 3 3 3 3 3 3 3 3 3 2 2
-2 -2 -1 1 3 4 3 2 1 1 1 0 -1 -2 -2 -3 -3 -4 -4 -4 -4 -4 -4 -4 -4 -4 -3 -2 -2 -2 -1 0 1 2 3 3 2 2 3 3 3 3 3 3 3 2 2 2 2
-2 -1 -0 1 3 4 3 2 1 1 0 -0 -2 -3 -3 -3 -4 -4 -4 -4 -4 -4 -4 -4 -4 -4 -3 -2 -2 -2 -1 -1 1 2 3 3 3 2 3 3 3 3 3 3 2 2 2 2 3
-1 -1 0 2 3 4 3 1 1 1 -1 -2 -2 -3 -3 -4 -4 -4 -4 -4 -4 -4 -5 -5 -4 -4 -3 -2 -2 -2 -2 -1 -1 1 2 3 3 2 2 3 3 3 3 2 2 2 2 3 3
-1 -1 0 2 3 3 2 1 1 0 -2 -3 -3 -3 -3 -3 -3 -4 -4 -4 -5 -5 -5 -5 -4 -4 -3 -3 -2 -1 -2 -2 -1 -0 1 2 3 2 2 2 2 2 2 2 2 2 3 3 4
-1 -0 0 1 2 2 1 1 0 -1 -2 -3 -4 -3 -3 -3 -3 -3 -4 -5 -5 -5 -5 -5 -4 -4 -3 -2 -2 -1 -1 -2 -2 -1 0 1 2 2 2 2 2 2 2 2 3 3 3 4 4
-0 -0 -0 0 1 1 1 1 -0 -1 -2 -3 -4 -4 -4 -4 -3 -3 -4 -5 -5 -5 -5 -4 -4 -4 -3 -2 -2 -1 -1 -1 -2 -1 0 1 2 2 2 2 2 2 2 2 3 3 4 4 5
-0 -0 -1 -1 -0 0 1 1 -0 -1 -2 -3 -4 -5 -6 -5 -4 -4 -4 -5 -5 -5 -5 -4 -4 -3 -2 -2 -1 -1 -1 -1 -1 -1 0 1 1 2 2 3 3 3 3 3 3 3 4 5 6
0 -0 -1 -1 -1 -0 0 0 0 -0 -1 -3 -5 -6 -6 -6 -6 -5 -4 -5 -5 -5 -5 -5 -4 -3 -2 -1 -1 -1 -1 -1 -1 -1 -0 0 1 1 2 2 3 3 3 4 4 4 4 5 5
0 -0 -1 -1 -1 -1 -0 0 0 0 -1 -3 -5 -6 -7 -7 -6 -6 -5 -5 -6 -6 -5 -5 -4 -3 -3 -2 -1 -0 -1 -1 -1 -1 -1 -0 -0 0 1 2 3 4 4 4 4 5 5 5 5
1 0 -1 -1 -1 -1 -0 0 1 0 -1 -4 -5 -6 -6 -6 -6 -6 -5 -5 -6 -6 -5 -5 -4 -4 -3 -2 -2 -1 -1 -1 -1 -1 -1 -1 -1 -0 0 1 2 3 4 4 4 4 4 5 5
2 1 -0 -1 -1 -1 -0 0 0 0 -1 -3 -5 -6 -6 -6 -6 -6 -6 -6 -6 -6 -6 -5 -4 -4 -3 -3 -3 -2 -2 -2 -2 -2 -2 -1 -1 -1 0 1 2 2 3 3 3 3 3 4 4
2 1 0 -0 -0 -0 -0 0 0 0 -1 -2 -4 -5 -6 -6 -6 -5 -6 -6 -6 -6 -6 -6 -5 -5 -4 -4 -3 -3 -3 -3 -3 -2 -2 -1 -1 -1 -0 0 1 1 2 2 2 2 2 3 3
2 2 1 0 0 0 0 0 -0 0 0 -0 -2 -3 -4 -5 -5 -5 -5 -6 -6 -6 -6 -6 -6 -5 -5 -4 -4 -4 -4 -3 -3 -2 -2 -2 -1 -1 -1 -0 -0 1 1 1 1 1 1 2 2
2 2 1 1 1 1 1 -0 -0 0 1 1 0 -1 -2 -3 -4 -5 -5 -5 -5 -5 -6 -6 -6 -6 -6 -5 -4 -4 -4 -4 -3 -3 -2 -2 -2 -1 -1 -1 -1 -0 -0 0 0 0 0 0 0
2 2 2 2 2 2 1 0 -0 0 1 1 1 1 0 -1 -2 -4 -5 -5 -5 -5 -5 -6 -6 -6 -6 -6 -5 -5 -5 -4 -4 -3 -3 -3 -2 -2 -1 -1 -1 -1 -1 -1 -1 -1 -1 -1 -1
1 1 2 2 2 2 1 1 1 1 1 1 1 2 2 1 0 -1 -2 -4 -5 -5 -5 -6 -6 -6 -6 -5 -5 -5 -5 -5 -4 -4 -3 -3 -3 -2 -2 -2 -1 -1 -1 -1 -1 -1 -1 -1 -1
1 1 1 2 2 2 2 1 1 2 2 2 1 2 2 2 2 1 0 -2 -4 -5 -5 -5 -6 -5 -5 -5 -5 -5 -5 -5 -4 -4 -4 -3 -3 -3 -2 -2 -2 -2 -2 -2 -2 -2 -2 -2 -2
2 2 1 1 1 1 1 1 2 2 2 2 2 1 1 1 2 2 2 0 -2 -4 -5 -5 -5 -5 -5 -5 -5 -5 -5 -5 -4 -4 -3 -3 -3 -2 -2 -2 -2 -2 -2 -2 -2 -2 -2 -2 -2
2 1 1 1 1 1 1 1 2 2 2 3 2 2 1 1 2 2 2 2 0 -2 -4 -5 -6 -6 -6 -5 -5 -5 -5 -4 -4 -4 -3 -3 -2 -2 -2 -2 -1 -1 -1 -1 -1 -2 -2 -2 -2
1 1 1 1 1 1 1 2 2 2 3 3 3 3 2 2 2 3 3 2 1 -0 -3 -4 -5 -6 -6 -5 -5 -5 -5 -5 -4 -4 -3 -3 -2 -2 -2 -1 -1 -0 0 0 -0 -1 -1 -1 -0
1 1 1 1 1 1 1 2 2 2 3 3 3 3 3 3 3 3 3 3 2 1 -0 -2 -4 -5 -5 -5 -5 -5 -4 -4 -4 -4 -3 -3 -3 -2 -1 -1 0 1 2 2 2 2 2 2 2
1 0 0 0 0 1 1 2 2 3 3 3 3 3 3 3 3 3 3 3 3 2 2 0 -2 -3 -4 -4 -4 -4 -4 -4 -3 -3 -3 -3 -2 -2 -1 -0 1 3 4 4 4 4 4 4 4
0 0 0 0 0 1 1 2 3 3 3 3 3 3 3 3 3 3 3 3 3 3 3 1 -0 -1 -2 -2 -3 -3 -3 -3 -3 -2 -2 -2 -2 -1 0 2 4 5 6 7 6 6 6 5 5
1 0 0 0 1 1 2 3 3 3 3 3 3 3 3 3 3 3 3 3 3 3 3 2 1 1 1 0 -0 -1 -1 -2 -2 -1 -1 -1 -0 1 3 4 5 6 7 7 7 7 7 7 6
1 0 0 0 0 1 2 2 3 3 3 3 3 3 3 3 3 3 2 2 2 2 2 2 2 3 3 3 3 2 1 1 0 1 1 2 2 4 5 6 6 6 7 7 7 8 8 8 7
0 0 0 0 1 1 1 2 2 2 2 2 2 3 3 3 3 3 2 2 1 1 2 2 3 3 4 4 5 5 4 3 3 3 4 4 5 5 6 6 6 6 7 7 7 8 8 8 8
0 0 0 0 1 1 1 2 2 1 1 1 2 2 3 3 3 3 3 2 1 1 2 2 3 3 4 5 5 6 5 5 5 5 5 6 6 6 6 6 6 6 7 7 7 8 8 8 8